{"data":{"norad_id":57872,"intl_designator":"2023-144J","name":"STARLINK-30446","alt_names":[],"object_type":"PAYLOAD","status":"ACTIVE","operator":null,"country":"US","launch_date":"2023-09-16","launch_site_code":"AFETR","launch_vehicle":null,"mission":null,"orbit_class":"UNKNOWN","rcs_meters":null,"size_class":null,"mass_kg":null,"dimensions":null,"purposes":["comms"],"wikipedia_slug":null,"has_3d_model":false,"image_url":null,"decayed_at":null,"tle_current":{"epoch":"2026-05-25T04:40:23.503872Z","epoch_age_seconds":52162,"freshness":"FRESH","line1":"1 57872U 23144J   26145.19471648  .00000640  00000+0  32795-4 0  9990","line2":"2 57872  43.0046 199.0155 0001520 265.1637  94.9041 15.27573630149231","mean_motion":15.2757363,"eccentricity":0.000152,"inclination_deg":43.0046,"raan_deg":199.0155,"arg_perigee_deg":265.1637,"mean_anomaly_deg":94.9041,"bstar":3.2795e-5,"rev_number":14923,"period_min":94.267141807102,"perigee_km":482.02526699166,"apogee_km":484.1110733634,"semimajor_km":6861.2051701775,"source":"CELESTRAK","updated_at":"2026-05-25T13:38:18.448136Z"}}}